Norfolk, NE

8:54 PM CDT on August 17, 2017 (GMT -0500)
Stefan Memorial

Weather History for KOFK - October, 2013

Change the Weather History Date:

Thursday, October 17, 2013

  Actual Average Record
Temperature  
Mean Temperature 41 °F 51 °F  
Max Temperature 52 °F 63 °F 89 °F (1961)
Min Temperature 30 °F 38 °F 16 °F (1922)
Degree Days  
Heating Degree Days 24 14  
Month to date heating degree days 165 198  
Since 1 July heating degree days 210 340  
Cooling Degree Days 0 0  
Month to date cooling degree days 9 8  
Year to date cooling degree days 1005 914  
Moisture  
Dew Point 35 °F    
Average Humidity 78    
Maximum Humidity 92    
Minimum Humidity 63    
Precipitation  
Precipitation 0.00 in 0.07 in 1.41 in (1968)
Month to date precipitation 4.32 1.29  
Year to date precipitation 23.58 24.51  
Snow  
Snow 0.00 in 0.00 in - ()
Month to date snowfall 0.0 0.2  
Since 1 July snowfall 0.0 0.2  
Snow Depth 0.00 in    
Sea Level Pressure  
Sea Level Pressure 29.98 in    
Wind  
Wind Speed 11 mph (NW)    
Max Wind Speed 25 mph    
Max Gust Speed 32 mph    
Visibility 10 miles    
Events      
T = Trace of Precipitation, MM = Missing Value Source: NWS Daily Summary

Daily Weather History Graph

Daily Weather History Graph

Search for Another Location

Airport or City:

Trip Planner

Search our weather history database for the weather conditions in past years. The results will help you decide how hot, cold, wet, or windy it might be!

Date:

Astronomy

Oct. 17, 2013 Rise Set
Actual Time 7:44 AM CDT 6:44 PM CDT
Civil Twilight 7:16 AM CDT 7:12 PM CDT
Nautical Twilight 6:44 AM CDT 7:45 PM CDT
Astronomical Twilight 6:11 AM CDT 8:17 PM CDT
Moon 6:00 PM CDT (10/17) 6:17 AM CDT (10/17)
Length of Visible Light 11h 56m
Length of Day
10h 59m
Waxing Gibbous, 98% of the Moon is Illuminated
Oct 17
Waxing Gibbous
Oct 18
Full
Oct 26
Last Quarter
Nov 3
New
Nov 9
First Quarter

Hourly Weather History & Observations

Time (CDT) Temp. Windchill Dew Point Humidity Pressure Visibility Wind Dir Wind Speed Gust Speed Precip Events Conditions
12:56 AM 35.1 °F - 30.9 °F 85% 29.95 in 10.0 mi Calm Calm - N/A   Clear
1:56 AM 35.1 °F - 32.0 °F 89% 29.94 in 10.0 mi Calm Calm - N/A   Clear
2:56 AM 35.1 °F - 32.0 °F 89% 29.92 in 10.0 mi Calm Calm - N/A   Clear
3:56 AM 34.0 °F - 30.9 °F 89% 29.90 in 10.0 mi Calm Calm - N/A   Clear
4:56 AM 34.0 °F - 30.9 °F 89% 29.90 in 10.0 mi Calm Calm - N/A   Clear
5:56 AM 32.0 °F - 30.0 °F 92% 29.90 in 8.0 mi Calm Calm - N/A   Clear
6:56 AM 32.0 °F - 30.9 °F 96% 29.90 in 9.0 mi Calm Calm - N/A   Clear
7:56 AM 34.0 °F 27.2 °F 30.0 °F 85% 29.92 in 8.0 mi West 8.1 mph - N/A   Clear
8:56 AM 37.9 °F 32.1 °F 33.1 °F 83% 29.94 in 10.0 mi West 8.1 mph - N/A   Clear
9:56 AM 44.1 °F 39.5 °F 36.0 °F 73% 29.94 in 10.0 mi WNW 8.1 mph - N/A   Clear
10:56 AM 48.9 °F - 37.0 °F 64% 29.96 in 10.0 mi WNW 18.4 mph 23.0 mph N/A   Clear
11:56 AM 52.0 °F - 39.0 °F 61% 29.96 in 10.0 mi WNW 18.4 mph 26.5 mph N/A   Clear
12:27 PM 50.0 °F - 39.2 °F 66% 29.95 in 10.0 mi NW 20.7 mph 31.1 mph N/A   Mostly Cloudy
12:56 PM 48.0 °F - 39.0 °F 71% 29.98 in 10.0 mi NW 21.9 mph 28.8 mph N/A   Overcast
1:56 PM 48.0 °F - 39.0 °F 71% 29.98 in 10.0 mi NW 19.6 mph 29.9 mph N/A   Overcast
2:56 PM 46.0 °F 38.3 °F 39.0 °F 76% 29.99 in 10.0 mi NW 20.7 mph 29.9 mph N/A   Overcast
3:56 PM 46.9 °F - 37.0 °F 68% 30.00 in 10.0 mi NNW 19.6 mph 28.8 mph N/A   Overcast
4:56 PM 46.0 °F 38.3 °F 37.0 °F 71% 30.01 in 10.0 mi NW 20.7 mph 32.2 mph N/A   Overcast
5:56 PM 45.0 °F 37.1 °F 37.0 °F 74% 30.03 in 10.0 mi NNW 19.6 mph 28.8 mph N/A   Overcast
6:56 PM 44.1 °F 35.7 °F 37.0 °F 76% 30.06 in 10.0 mi NNW 20.7 mph 26.5 mph N/A   Overcast
7:56 PM 43.0 °F 36.0 °F 36.0 °F 76% 30.07 in 10.0 mi NNW 13.8 mph - N/A   Overcast
8:33 PM 42.8 °F 36.2 °F 35.6 °F 76% 30.05 in 10.0 mi NW 12.7 mph 20.7 mph N/A   Overcast
8:56 PM 43.0 °F 36.0 °F 35.1 °F 74% 30.09 in 10.0 mi NW 13.8 mph - N/A   Overcast
9:56 PM 43.0 °F 36.4 °F 34.0 °F 71% 30.10 in 10.0 mi NW 12.7 mph - N/A   Overcast
10:56 PM 41.0 °F 35.8 °F 34.0 °F 76% 30.09 in 10.0 mi NW 8.1 mph - N/A   Overcast
11:56 PM 39.0 °F 33.4 °F 33.1 °F 79% 30.09 in 10.0 mi WNW 8.1 mph - N/A   Clear